FENGYUN 1C DEB, 31427

Orbit data source: Space-Track

FENGYUN 1C DEB, 31427 is space debris in SSO originally from a launch on Mon, 10 May 1999 UTC launched from the Taiyaun Space Center, China (TSC). Fengyun 1C debris stems from the Chinese weather satellite Fengyun-1C, which was intentionally destroyed by a Chinese anti-satellite missile in 2007. This event dramatically increased the amount of space debris, with thousands of trackable fragments posing hazards to satellites and human spaceflight. The Fengyun 1C debris cloud has become a focal point in discussions about space sustainability and the need for international regulations to prevent the creation of new debris.

Loading next visibility...
Identifier
31427, 1999-025BTP
Orbit
SSO
Country
Flag of CNCN / PRC
Related business
Manufacturer
Unknown
Mission
Spacecraft
Bus & Motor
Unknown
Mass
Unknown
Launch date (UTC)
1999-05-10 (27 years ago)
Launch vehicle
Unknown
Launch site
Taiyaun Space Center, China (TSC)
Object type
Payload
Rocket body
Debris
Shape & HBR
Unknown shape, 0.1 m
Radar Cross Section
Medium (>0.1 m² and <1 m²)

Expand to show TLE details & history
Last TLE update: 2 days ago

TLE from 2 days ago
0 FENGYUN 1C DEB
1 31427U 99025BTP 26262.31712568  .00006925  00000-0  12963-2 0  9998
2 31427  98.6841  30.3016 0028303 230.1433 129.7278 14.64917300  9820
Epoch: 2026-09-19T07:36Z
TLE epoch observation values (Epoch: 2026-09-19T07:36:39.658Z)
Latitude
-0.00007°
Longitude
-82.09103°
Altitude
693.116 km
Speed
7.503 km/s
True Right ascension
02h 01m 12s
True Declination
0° 00' 00"
Sunlit
Object was in full shadow at epoch
Visualization orbit readout
Latitude
Unknown
Longitude
Unknown
Altitude
Unknown
Speed
Unknown
Apparent Right ascension
Unknown
Apparent Declination
Unknown
Sunlit
N/A
Visualization observer readout
Local Sidereal Time
00:01:12
Azimuth
Unknown
Elevation
Unknown
Doppler factor
Unknown
Orbital elements
Apogee altitude
694.399 km
Perigee altitude
654.478 km
Semi-major axis
7,052.575 km
Eccentricity
0.00283
Inclination
98.6841°
RAAN
30.3016°
Arg. of periapsis
230.1433°
True anomaly
129.97667°
Mean anomaly
129.7278°
Eccentric anomaly
129.85229°
Mean motion
3.66456 °/min
Orbital period
98.24 mins
BSTAR
0.0012963
Loading maneuver chart data...
Computing Atmospheric mass density...

Documentation

Showing up to 5 results
|